Chat jij ook met ons mee!

The Flower Power Show

Reageren

Pagina 2 van 2 Vorige  1, 2

Ga naar beneden

Re: The Flower Power Show

Bericht  Dave Evans op 29.07.18 1:21

Graag gedaan John!

_________________
If music be the food of love, play on.
William Shakespeare
avatar
Dave Evans
Moderator
Moderator

Aantal berichten : 22130
Registratiedatum : 04-12-08
Leeftijd : 53
Woonplaats : Meppel

Terug naar boven Ga naar beneden

Re: The Flower Power Show

Bericht  Dave Evans op 29.07.18 1:22

1 2018-07-28 20:03:42 Flowerpot men Let's go to san fransisco 3:36 S 0
2 2018-07-28 20:07:14 The Lovin' Spoonful Summer in the City The Very Best of Lovin' Spoonful [Camden] 1998 2:42 S 3
3 2018-07-28 20:09:55 Electric Prunes I Had Too Much to Dream (Last Night) The Psychedelic Years, 1966-1969 (1) 0 2:58 S 3
4 2018-07-28 20:12:47 DMA's Emily Whyte 0 4:24 S 4
5 2018-07-28 20:17:07 After tea Not just a flower in your hair Nederpop 1967-1969 0 2:36 S 4
6 2018-07-28 20:19:39 Lemon Pipers Green Tambourine Top 40 Jaarlijsten 1968 1968 2:24 S 5
7 2018-07-28 20:22:01 Blue Cheer Summertime Blues Vincebus Eruptum 1968 3:47 S 6
8 2018-07-28 20:25:45 Greta Van Fleet Flower Power From The Fires 2017 5:13 S 6
9 2018-07-28 20:31:39 The Beatles Sgt. Pepper's Lonely Hearts Club Band Sgt. Pepper's Lonely Hearts Club Band 2017 2:03 S 8
10 2018-07-28 20:33:44 The Zombies Time Of The Season Odessey And Oracle 1968 3:34 S 9
11 2018-07-28 20:37:19 Space Magic fly Disco Super Stars CD3 4:19 S 11
12 2018-07-28 20:40:42 Santana Soul Sacrifice (Live at Woodstock, August 1969) Santana (2004. Legacy Edition) - Disc 2 of 2 1969 11:49 S 12
13 2018-07-28 20:47:39 The Great Society Darkly Smiling Conspicuous Only In Its Absence 1967 3:08 S 12
14 2018-07-28 20:51:43 The Turtles Happy Together Happy Together 1967 2:55 S 12
15 2018-07-28 20:54:38 Michel Fugain & le Big Bazar Bravo Monsieur le Monde Fugain & le Big Bazar Numéro 2 1973 3:05 S 12
16 2018-07-28 20:57:42 The Bob Crewe Generation Music To Watch Girls By Music To Watch Girls By 1967 2:54 S 13
17 2018-07-28 20:59:54 Led Zeppelin Ramble On Rolling Stone Magazine's 500 Greatest Songs Of All Time 1969 4:24 S 13
18 2018-07-28 21:04:16 Crosby, Stills, Nash And Young Crosby Stills Nash Young Woodstock Csn (Disk 2) 1991 3:53 S 14
19 2018-07-28 21:08:05 Jimi Hendrix Star Spangled Banner Live at Woodstock (disc 2) 3:44 S 14
20 2018-07-28 21:11:58 Twilight Sad I'm Not Here (missing face) [2018] 0 5:40 S 14
21 2018-07-28 21:19:08 Fifth Dimension Up, Up And Away 0 2:41 S 14
22 2018-07-28 21:21:53 Bob Dylan Subterranean Homesick Blues 2:17 S 14
23 2018-07-28 21:24:56 The Mysterons Turkish Delight Meandering 2017 5:49 S 15
24 2018-07-28 21:31:22 Procol Harum A Whiter Shade Of Pale Nederlandse Top 40 - 1967 1967 4:08 S 15
25 2018-07-28 21:37:16 Mud Flower Power Piccadilly Sunshine. Part 13 1967 2:58 S 15
26 2018-07-28 21:40:09 Veronica Wij houden stand (Woodstock) 0:23 S 15
27 2018-07-28 21:40:32 America Sister Golden Hair History: America's Greatest Hits 1975 3:29 S 15
28 2018-07-28 21:44:57 Norman Greenbaum Spirit In The Sky Tour of Duty the golden popclassics from the 60's 1990 3:59 S 15
29 2018-07-28 21:48:53 The Byrds Eight Miles High 3:38 S 15
30 2018-07-28 21:52:34 Metric Dark Saturday [2018] 0 3:50 S 14
31 2018-07-28 21:56:57 Temples Sun Structures Sun Structures 2014 5:13 S 15
32 2018-07-28 22:01:52 The Beatles Within You, Without You (2017 stereo mix) Sgt. Pepper's Lonely Hearts Club Band (Super Deluxe Edition) 2017 5:08 S 15
33 2018-07-28 22:08:21 Simon & Garfunkel Mrs. Robinson Pitchfork's 200 Greatest Songs Of The 1960s 4:03 S 15
34 2018-07-28 22:12:01 The Rolling Stones Gimme shelter Forty Licks (CD1) 2002 4:35 S 15
35 2018-07-28 22:17:34 Tambourine Summer Of Love Flowers In September 1989 2:58 S 16
36 2018-07-28 22:21:02 Melanie Peace Will Come Best Of Melanie 1991 3:19 S 17
37 2018-07-28 22:24:58 Sandi Thom I wish I was a punk rocker [With flowers in my hair] Tipparade 2006 2006 2:33 S 17
38 2018-07-28 22:27:31 Zen Hair 100 Summer Hits of the Sixties (2010) 2:10 S 17
39 2018-07-28 22:31:13 Flyying Colours Like You Said Flyying Colours EP 2013 3:57 S 16
40 2018-07-28 22:35:11 Scott McKenzie San Fransisco Oldies 2015 2:58 S 16
41 2018-07-28 22:39:51 Manfred Mann Ha! Ha! Said The Clown 100 Summer Hits of the Sixties (2010) 2:28 S 16
42 2018-07-28 22:42:17 Canned Heat On the Road Again Boogie with Canned Heat 1968 5:02 S 17
43 2018-07-28 22:47:21 Mystery How Do You Feel [2018] 0 4:53 S 16
44 2018-07-28 22:54:15 Move Flowers In The Rain (1967) 2:30 S 16
45 2018-07-28 22:56:41 Sufjan Stevens Chicago Illinoise 2005 6:05 S 16
46 2018-07-28 23:02:42 The Bob Crewe Generation Music To Watch Girls By Music To Watch Girls By 1967 2:54 S 16
47 2018-07-28 23:05:06 Boudewijn de Groot De Tuin der Lusten 0 2:38 S 16
48 2018-07-28 23:07:42 The Doors Five To One Celebration of the Lizard 1968 4:20 S 15
49 2018-07-28 23:12:44 Van Kooten & De Bie Alles Zonder Met Koot & Bie Audiotheek (CD10) 2005 3:32 S 15
50 2018-07-28 23:16:19 POND Burnt Out Star [2018] 0 8:10 S 15
51 2018-07-28 23:21:59 Love Bummer In The Summer Forever Changes 1967 2:24 S 15
52 2018-07-28 23:24:19 Sonny & Cher Little Man The Beat Goes On: The Best of Sonny & Cher 1993 3:22 S 15
53 2018-07-28 23:28:41 Michel Polnareff Tous les bateaux tous les oiseaux 100 Tubes Pour Danser Les années 60 CD 3 1960 3:29 S 15
54 2018-07-28 23:32:52 Quest for Fire Psychic seasons lights from paradise 2010 5:57 S 14
55 2018-07-28 23:39:36 Charles Aznavour Hier encore 40 Chansons d'or CD 2 1996 2:22 S 13
56 2018-07-28 23:43:49 The Troggs With A Girl Like You (Bonus) From Nowhere 1966 2:08 S 13
57 2018-07-28 23:45:53 Eric Burdon & The Animals San Franciscan Nights 0 3:25 S 13
58 2018-07-28 23:49:45 Mamas & The Papas Twelve Thirty 3:28 S 13
59 2018-07-28 23:53:53 Blackbird One Of The Wild Ones [2018] 0 3:26 S 12
60 2018-07-28 23:57:26 Radio Tour de France Finishtune 2:39 S 12
61 2018-07-28 23:58:32 Ton Engels Tom Dumoulin Herfstkampioen 2017 3:04 S 12
62 2018-07-29 00:01:54 Radio Tour de France Finishtune 2:39 S 10
63 2018-07-29 00:03:05 Beach Boys God only knows Pet Sounds 1966 2:55 S 10
64 2018-07-29 00:05:59 Struts Body Talks [2018] 0 2:56 S 10
65 2018-07-29 00:09:09 Small Faces Lazy Sunday Afternoon Top 40 Jaarlijsten 1968 1968 3:04 S 10
66 2018-07-29 00:12:26 Wim Sonneveld De Kat Van Ome Willem Top 40 Jaarlijsten 1968 1968 2:10 S 9
67 2018-07-29 00:14:33 Pauw Shambala Macrocosm Microcosm 2015 6:48 S 9
68 2018-07-29 00:20:32 Indochine La vie est belle 13 2017 5:28 S 8
69 2018-07-29 00:26:22 Paul van Vliet Pappa (is blijven hangen aan de sixties) Jubileumshow CD2 1992 4:38 S 8
70 2018-07-29 00:30:52 Frank Zappa What's The Ugliest Part Of You We're Only In It For The Money 1968 1:03 S 8
71 2018-07-29 00:31:58 The Beatles Yesterday Help! 1965 2:07 S 8
72 2018-07-29 00:34:39 Monkees Daydream Believer 3:08 S 8
73 2018-07-29 00:38:44 Beum& Voos Zuurdiekster blues 0 5:15 S 8
74 2018-07-29 00:45:29 Spinvis Club insomnia 0 6:30 S 8
75 2018-07-29 00:52:36 Pé Daalemmer En Rooie Rinus Zundagoavend blues 't Beste 1993 7:10 S 6
76 2018-07-29 01:00:23 Madrugada The kids are on high street promo 2005 4:59 S 2
77 2018-07-29 01:06:05 The Raspberries Don't Want To Say Goodbye Capitol Collectors Series 5:06 S 6
78 2018-07-29 01:11:04 Drs. P Gonzofoon Compilé Sur CD 2:23 S 6
79 2018-07-29 01:13:24 The Temper Trap Trembling Hands The Temper Trap 2012 4:40 S 6
80 2018-07-29 01:17:58 Sweepers Bye baby bye 360-r 0 2:58 S 5

_________________
If music be the food of love, play on.
William Shakespeare
avatar
Dave Evans
Moderator
Moderator

Aantal berichten : 22130
Registratiedatum : 04-12-08
Leeftijd : 53
Woonplaats : Meppel

Terug naar boven Ga naar beneden

Re: The Flower Power Show

Bericht  Mirrr op 29.07.18 10:16

Thanks Dave, fijne muziekshow weer, heb tot 12 geluisterd, toen ging het lampje uit bij mij Rolling Eyes
avatar
Mirrr
Music-Master
Music-Master

Aantal berichten : 8820
Registratiedatum : 21-12-08
Leeftijd : 55

Terug naar boven Ga naar beneden

Re: The Flower Power Show

Bericht  Gesponsorde inhoud


Gesponsorde inhoud


Terug naar boven Ga naar beneden

Pagina 2 van 2 Vorige  1, 2

Terug naar boven


Reageren
 
Permissies van dit forum:
Je mag reacties plaatsen in dit subforum